Погода в Сан-Игнасио-де-Сабанета

Доминиканская Республика     19°28′18″N   71°20′08″W
темп.,
°C
ветер,
м/с
пор.,
м/с
влажн.,
%
обл.,
%
осадки,
мм/ч
давл.,
гПа
погр.,
м
30 ноября, вт
вт3023:00+22юз118638 0.0 101615
02:00+21ююз119199 0.0 101511
05:00+20ю119261 0.0 101511
08:00+22ююв1183100 0.0 101762
11:00+27св2358100 0.0 10181066
14:00+30ссв3346100 0.0 10141867
17:00+25св247622 1.1 1014109
20:00+22юв1190100 1.8 101713
1 декабря, ср
ср123:00+22вюв119190 0.0 101727
02:00+20юв119545 0.0 101618
05:00+19юв11954 0.0 101618
08:00+20юв128926 0.0 101873
11:00+28в465311 0.0 10181171
14:00+32в45402 0.0 10151942
17:00+29св665335 0.0 10141211
20:00+23в26850 0.0 1017145
2 декабря, чт
чт223:00+21в24900 0.0 1018115
02:00+19вюв12950 0.0 101633
05:00+19ююв22895 0.0 101619
08:00+21юв12760 0.0 101877
11:00+29в44464 0.0 10171197
14:00+33всв333455 0.0 10141996
17:00+31св444524 0.0 1013985
20:00+23ю118834 0.1 101613
3 декабря, пт
пт323:00+21вюв229393 0.4 101619
02:00+20юв119312 0.4 101513
05:00+19юв119316 0.0 101516
08:00+21в128656 0.0 101673
11:00+29всв45558 0.0 10161270
14:00+32всв45382 0.0 10122220
17:00+29св685422 0.0 10121087
20:00+22в23865 0.1 101563
4 декабря, сб
сб423:00+21вюв23885 0.0 101659
02:00+19вюв2293100 0.0 101530
05:00+19юв22895 0.0 101522
08:00+21вюв1275100 0.0 101690
11:00+29всв68504 0.0 10161316
14:00+32в67386 0.0 10121905
17:00+30в684415 0.0 10121615
20:00+24в51268100 0.0 1015558